Hourly Weather Bolshie Klyuchi

Today, 30 July, Friday

Time Temperature Precipitation Wind Pressure Humidity
00:00 +16°C° 0 mm 1 mps 742 mmHg 95%
01:00 +15°C° 0 mm 1 mps 742 mmHg 95%
02:00 +15°C° 0 mm 1 mps 742 mmHg 96%
03:00 +15°C° 0 mm 1 mps 742 mmHg 96%
04:00 +16°C° 0 mm 2 mps 742 mmHg 94%
05:00 +17°C° 0 mm 2 mps 742 mmHg 91%
06:00 +18°C° 0 mm 2 mps 742 mmHg 89%
07:00 +19°C° 0 mm 3 mps 742 mmHg 83%
08:00 +21°C° 0 mm 3 mps 743 mmHg 77%
09:00 +23°C° 0 mm 4 mps 743 mmHg 71%
10:00 +25°C° 0.1 mm 4 mps 743 mmHg 66%
11:00 +26°C° 0.1 mm 5 mps 743 mmHg 61%
12:00 +27°C° 0.1 mm 5 mps 743 mmHg 57%
13:00 +28°C° 0.1 mm 4 mps 743 mmHg 53%
14:00 +29°C° 0.1 mm 4 mps 743 mmHg 49%
15:00 +30°C° 0.1 mm 3 mps 743 mmHg 45%
16:00 +28°C° 0 mm 3 mps 743 mmHg 50%
17:00 +27°C° 0 mm 3 mps 743 mmHg 55%
18:00 +26°C° 0 mm 3 mps 743 mmHg 60%
19:00 +25°C° 0 mm 2 mps 743 mmHg 62%
20:00 +24°C° 0 mm 2 mps 743 mmHg 64%
21:00 +24°C° 0 mm 1 mps 743 mmHg 66%
22:00 +23°C° 0.3 mm 2 mps 743 mmHg 72%
23:00 +21°C° 0.3 mm 2 mps 742 mmHg 77%

Tomorrow, 31 July, Saturday

Time Temperature Precipitation Wind Pressure Humidity
00:00 +20°C° 0.3 mm 3 mps 742 mmHg 83%
01:00 +20°C° 0.6 mm 2 mps 742 mmHg 87%
02:00 +19°C° 0.6 mm 2 mps 742 mmHg 91%
03:00 +20°C° 0.6 mm 1 mps 742 mmHg 96%
04:00 +19°C° 0 mm 2 mps 742 mmHg 94%
05:00 +20°C° 0 mm 2 mps 742 mmHg 93%
06:00 +20°C° 0 mm 3 mps 742 mmHg 91%
07:00 +21°C° 0 mm 3 mps 742 mmHg 85%
08:00 +23°C° 0 mm 4 mps 742 mmHg 79%
09:00 +25°C° 0 mm 4 mps 742 mmHg 73%
10:00 +25°C° 0 mm 5 mps 742 mmHg 70%
11:00 +26°C° 0 mm 5 mps 742 mmHg 67%
12:00 +26°C° 0 mm 6 mps 742 mmHg 64%
13:00 +26°C° 0.1 mm 6 mps 742 mmHg 65%
14:00 +26°C° 0.1 mm 6 mps 742 mmHg 67%
15:00 +26°C° 0.1 mm 6 mps 742 mmHg 68%
16:00 +26°C° 0.1 mm 6 mps 743 mmHg 64%
17:00 +26°C° 0.1 mm 6 mps 743 mmHg 60%
18:00 +26°C° 0.1 mm 5 mps 743 mmHg 56%
19:00 +23°C° 0 mm 4 mps 743 mmHg 60%
20:00 +21°C° 0 mm 3 mps 744 mmHg 65%
21:00 +20°C° 0 mm 2 mps 744 mmHg 69%
22:00 +20°C° 0 mm 3 mps 744 mmHg 67%
23:00 +20°C° 0 mm 3 mps 744 mmHg 65%

Day after tomorrow, 1 August, Sunday

Time Temperature Precipitation Wind Pressure Humidity
00:00 +20°C° 0 mm 3 mps 744 mmHg 63%
01:00 +19°C° 0 mm 3 mps 745 mmHg 65%
02:00 +18°C° 0 mm 3 mps 745 mmHg 67%
03:00 +17°C° 0 mm 3 mps 745 mmHg 69%
04:00 +18°C° 0 mm 3 mps 745 mmHg 67%
05:00 +19°C° 0 mm 3 mps 746 mmHg 66%
06:00 +20°C° 0 mm 3 mps 746 mmHg 64%
07:00 +21°C° 0 mm 4 mps 746 mmHg 59%
08:00 +23°C° 0 mm 4 mps 747 mmHg 54%
09:00 +26°C° 0 mm 5 mps 747 mmHg 49%
10:00 +26°C° 0 mm 5 mps 747 mmHg 47%
11:00 +27°C° 0 mm 6 mps 747 mmHg 45%
12:00 +28°C° 0 mm 6 mps 747 mmHg 42%
13:00 +28°C° 0 mm 6 mps 747 mmHg 41%
14:00 +29°C° 0 mm 6 mps 747 mmHg 39%
15:00 +29°C° 0 mm 6 mps 747 mmHg 38%
16:00 +28°C° 0 mm 5 mps 748 mmHg 42%
17:00 +27°C° 0 mm 3 mps 748 mmHg 47%
18:00 +27°C° 0 mm 2 mps 748 mmHg 51%
19:00 +25°C° 0 mm 2 mps 748 mmHg 54%
20:00 +24°C° 0 mm 2 mps 748 mmHg 56%
21:00 +23°C° 0 mm 1 mps 748 mmHg 59%
22:00 +22°C° 0 mm 1 mps 748 mmHg 62%
23:00 +22°C° 0 mm 1 mps 748 mmHg 64%

2 August, Monday

Time Temperature Precipitation Wind Pressure Humidity
00:00 +21°C° 0 mm 1 mps 749 mmHg 67%
01:00 +20°C° 0 mm 2 mps 749 mmHg 68%
02:00 +19°C° 0 mm 2 mps 749 mmHg 69%
03:00 +19°C° 0 mm 2 mps 749 mmHg 71%
04:00 +20°C° 0 mm 2 mps 749 mmHg 69%
05:00 +20°C° 0 mm 3 mps 749 mmHg 67%
06:00 +21°C° 0 mm 3 mps 749 mmHg 66%
07:00 +22°C° 0 mm 4 mps 749 mmHg 62%
08:00 +25°C° 0 mm 4 mps 749 mmHg 57%
09:00 +26°C° 0 mm 5 mps 749 mmHg 53%
10:00 +28°C° 0 mm 5 mps 748 mmHg 49%
11:00 +30°C° 0 mm 5 mps 748 mmHg 45%
12:00 +33°C° 0 mm 6 mps 748 mmHg 40%
13:00 +33°C° 0 mm 5 mps 748 mmHg 39%
14:00 +34°C° 0 mm 5 mps 747 mmHg 37%
15:00 +35°C° 0 mm 5 mps 747 mmHg 35%
16:00 +34°C° 0 mm 4 mps 747 mmHg 39%
17:00 +33°C° 0 mm 3 mps 747 mmHg 43%
18:00 +31°C° 0 mm 2 mps 746 mmHg 47%
19:00 +28°C° 0.2 mm 3 mps 746 mmHg 54%
20:00 +26°C° 0.2 mm 3 mps 746 mmHg 62%
21:00 +22°C° 0.2 mm 3 mps 746 mmHg 69%
22:00 +23°C° 0.4 mm 2 mps 746 mmHg 72%
23:00 +23°C° 0.4 mm 2 mps 746 mmHg 75%

3 August, Tuesday

Time Temperature Precipitation Wind Pressure Humidity
00:00 +22°C° 0.4 mm 1 mps 746 mmHg 78%
01:00 +21°C° 0 mm 2 mps 746 mmHg 79%
02:00 +20°C° 0 mm 2 mps 745 mmHg 79%
03:00 +20°C° 0 mm 3 mps 745 mmHg 80%
04:00 +21°C° 0 mm 3 mps 745 mmHg 77%
05:00 +21°C° 0 mm 3 mps 745 mmHg 73%
06:00 +22°C° 0 mm 3 mps 745 mmHg 70%
07:00 +25°C° 0 mm 3 mps 745 mmHg 60%
08:00 +28°C° 0 mm 4 mps 745 mmHg 51%
09:00 +30°C° 0 mm 4 mps 745 mmHg 41%
10:00 +32°C° 0 mm 4 mps 745 mmHg 40%
11:00 +33°C° 0 mm 4 mps 745 mmHg 39%
12:00 +34°C° 0 mm 4 mps 745 mmHg 37%
13:00 +35°C° 0 mm 4 mps 745 mmHg 37%
14:00 +35°C° 0 mm 4 mps 745 mmHg 36%
15:00 +35°C° 0 mm 4 mps 745 mmHg 36%
16:00 +31°C° 0.8 mm 3 mps 745 mmHg 51%
17:00 +28°C° 0.8 mm 3 mps 746 mmHg 65%
18:00 +24°C° 0.8 mm 3 mps 746 mmHg 80%
19:00 +23°C° 0.1 mm 2 mps 746 mmHg 82%
20:00 +23°C° 0.1 mm 2 mps 746 mmHg 84%
21:00 +21°C° 0.1 mm 2 mps 747 mmHg 85%
22:00 +21°C° 0 mm 1 mps 747 mmHg 88%
23:00 +21°C° 0 mm 1 mps 747 mmHg 90%

4 August, Wednesday

Time Temperature Precipitation Wind Pressure Humidity
00:00 +20°C° 0 mm 1 mps 747 mmHg 93%
01:00 +20°C° 0 mm 1 mps 748 mmHg 93%
02:00 +19°C° 0 mm 1 mps 748 mmHg 94%
03:00 +19°C° 0 mm 1 mps 748 mmHg 95%
04:00 +19°C° 0.1 mm 1 mps 748 mmHg 94%
05:00 +20°C° 0.1 mm 1 mps 748 mmHg 92%
06:00 +20°C° 0.1 mm 1 mps 748 mmHg 91%
07:00 +20°C° 0.1 mm 1 mps 749 mmHg 89%
08:00 +20°C° 0.1 mm 2 mps 749 mmHg 87%
09:00 +20°C° 0.1 mm 2 mps 749 mmHg 85%
10:00 +21°C° 0 mm 2 mps 749 mmHg 78%
11:00 +23°C° 0 mm 1 mps 749 mmHg 72%
12:00 +23°C° 0 mm 0 mps 749 mmHg 65%
13:00 +25°C° 0 mm 1 mps 749 mmHg 62%
14:00 +26°C° 0 mm 2 mps 749 mmHg 60%
15:00 +26°C° 0 mm 2 mps 749 mmHg 57%
16:00 +26°C° 0 mm 2 mps 749 mmHg 59%
17:00 +25°C° 0 mm 2 mps 749 mmHg 62%
18:00 +25°C° 0 mm 2 mps 749 mmHg 64%
19:00 +24°C° 0 mm 2 mps 749 mmHg 68%
20:00 +21°C° 0 mm 2 mps 750 mmHg 73%
21:00 +20°C° 0 mm 2 mps 750 mmHg 77%
22:00 +20°C° 0 mm 2 mps 750 mmHg 79%
23:00 +19°C° 0 mm 2 mps 750 mmHg 81%
Show more

We Need Your Consent

Meteoprog and our Service Providers may store and access personal data such as cookies, device identifiers or other similar technologies on your device and process such data to personalise content and ads, as well as provide social media features and to analyse the traffic.

  • Store and/or access information on your device

    Cookies, device identifiers or other information can be stored or accessed on your device for the purposes indicated above.

  • Personalised ads and content, ad and content measurement, audience insights, and products development

    Ads and content can be personalised based on a profile. More data can be added to better personalise ads and content. Ad and content performance can be measured. Insights about the audience who saw the ads and content can be derived. Such data can be used to develop or improve user’s experience, systems and software.

By clicking ‘I Agree’ you will allow the use of indicated cookies, device identifiers, web beacons or other similar technologies. Your settings can be changed in the browser on your device.

For certain purposes, legitimate interests may be relied on, rather than consent. You can read more about this in our Privacy and Cookie Policy.